Home   Weather   Yokosuka   Past weeks

Flag for Japan Past Weather in Yokosuka, Japan — Yesterday and Last 2 Weeks

Now
55 °F

Light rain. Passing clouds.


Feels Like: 53 °F
Forecast: 53 / 61 °F
Wind: 8 mph from Northeast

Location: Tokyo International Airport

Current Time: Dec 4, 2016 at 11:25:13 pm

Latest Report: Dec 4, 2016 at 11:00 pm


Visibility: 6 mi

Pressure: 29.92 "Hg

Humidity: 82%

Dew Point: 50 °F

Location of YokosukaLocation

Past Weather in Yokosuka — Graph

°F

Yokosuka Temperature Yesterday

Maximum temperature yesterday: 59 °F (at 12:00 pm)
Minimum temperature yesterday: 48 °F (at 5:30 am)
Average temperature yesterday: 54 °F

High & Low Weather Summary for the Past Weeks

 TemperatureHumidityPressure
High64 °F (Nov 20, 12:00 pm)100% (Nov 20, 6:30 am)30.51 "Hg (Nov 20, 6:30 am)
Low36 °F (Nov 24, 6:30 am)33% (Dec 2, 11:30 am)29.71 "Hg (Nov 22, 1:00 pm)
Average53 °F71%30.09 "Hg
* Reported Nov 19 10:00 pm — Dec 4 10:00 pm, Yokosuka, Weather by CustomWeather, © 2016

Note: Actual official high and low records may vary slightly from our data, if they occured in-between our weather recording intervals... More about our weather records

Advertising

Yokosuka Weather History for the Previous 24 Hours

Scroll right to see more
 ConditionsComfort  
Time TempWeatherWind HumidityBarometerVisibility
10:00 pm
Sun, Dec 4
55 °FLight rain. Overcast.9 mph77%29.95 "HgN/A
9:30 pm57 °FLight rain. Overcast.1 mph67%29.98 "HgN/A
9:00 pm57 °FLight rain. Overcast.3 mph72%29.95 "HgN/A
8:30 pm57 °FLight rain. Overcast.3 mph63%29.98 "HgN/A
8:00 pm59 °FLight rain. Overcast.3 mph68%29.98 "HgN/A
7:30 pm61 °FLight rain. Passing clouds.7 mph59%30.01 "HgN/A
7:00 pm63 °FPassing clouds.8 mph59%30.01 "HgN/A
6:30 pm63 °FPassing clouds.13 mph56%30.01 "HgN/A
6:00 pm63 °FPassing clouds.10 mph56%30.01 "HgN/A
5:30 pm63 °FPassing clouds.8 mph59%30.01 "HgN/A
5:00 pm63 °FPassing clouds.10 mph59%30.01 "HgN/A
4:30 pm63 °FPassing clouds.14 mph52%30.01 "HgN/A
4:00 pm61 °FPartly sunny.9 mph72%30.01 "HgN/A
3:30 pm59 °FPartly sunny.10 mph77%30.01 "HgN/A
3:00 pm61 °FPartly sunny.13 mph68%30.04 "HgN/A
2:30 pm61 °FPartly sunny.13 mph68%30.04 "HgN/A
2:00 pm61 °FPartly sunny.12 mph63%30.04 "HgN/A
1:45 pm61 °FPartly sunny.12 mph63%30.07 "HgN/A
1:30 pm57 °FPartly sunny.7 mph72%30.07 "HgN/A
1:00 pm57 °FPartly sunny.6 mph63%30.07 "HgN/A
12:30 pm57 °FPartly sunny.6 mph63%30.09 "HgN/A
11:30 am55 °FPartly sunny.5 mph63%30.12 "HgN/A
11:00 am55 °FPartly sunny.3 mph63%30.15 "HgN/A
10:30 am55 °FPartly sunny.3 mph59%30.15 "HgN/A
10:00 am55 °FPartly sunny.3 mph59%30.18 "HgN/A
9:30 am55 °FPartly sunny.3 mph59%30.18 "HgN/A
9:00 am54 °FPartly sunny.3 mph58%30.18 "HgN/A
8:30 am52 °FSunny.3 mph62%30.18 "Hg10 mi
8:00 am52 °FPartly sunny.5 mph67%30.18 "HgN/A
7:30 am50 °FPartly sunny.6 mph67%30.21 "HgN/A
7:00 am48 °FPartly sunny.5 mph66%30.18 "HgN/A
6:30 am48 °FPassing clouds.3 mph66%30.18 "HgN/A
6:00 am50 °FPassing clouds.3 mph62%30.18 "HgN/A
5:30 am52 °FPassing clouds.3 mph58%30.18 "HgN/A
5:00 am52 °FPartly cloudy.3 mph58%30.18 "HgN/A
4:30 am52 °FPassing clouds.5 mph58%30.18 "HgN/A
4:00 am52 °FPassing clouds.6 mph62%30.18 "HgN/A
3:30 am52 °FPassing clouds.6 mph62%30.18 "HgN/A
3:00 am50 °FPartly cloudy.6 mph67%30.21 "HgN/A
2:30 am52 °FPartly cloudy.6 mph62%30.21 "HgN/A
2:00 am50 °FPartly cloudy.6 mph67%30.21 "HgN/A
1:30 am52 °FPartly cloudy.6 mph67%30.24 "HgN/A
1:00 am52 °FPassing clouds.7 mph67%30.24 "HgN/A
12:30 am54 °FPartly cloudy.6 mph63%30.24 "HgN/A
12:00 am52 °FPartly cloudy.7 mph67%30.24 "HgN/A
11:30 pm
Sat, Dec 3
54 °FPartly cloudy.7 mph63%30.24 "HgN/A
11:00 pm54 °FPartly cloudy.8 mph67%30.27 "HgN/A
Weather by CustomWeather, © 2016

See weather overviewHow to use our weather pages